Location: Devargunta
(16.7631°N, 80.9077°E)
Time: 18:02:36
(UTC+00:00)

COSMOS 2455 - Pass Details

Date: 19 January 2021
Orbit: 901 x 908 km, 67.1° (Epoch: 04 March)

Event Time Altitude Azimuth Distance (km) Brightness Sun altitude
Exits shadow 23:26:59 49° 251° (WSW) 1,149 3.0 -24.1°
Drops below altitude 10° 23:32:42 10° 178° (S) 2,576 5.4 -22.8°
Sets 23:35:16 0° 173° (S) 3,514 6.2 -22.2°
